Printer-friendly version

IAU Minor Planet Center

Minor Planet Center

MPEC 2004-L23 : 2001 PD1

The following Minor Planet Electronic Circular may be linked-to from your own Web pages, but must not otherwise be redistributed electronically.


Read MPEC 2004-L22 Read MPEC 2004-L24


M.P.E.C. 2004-L23                                Issued 2004 June 10, 12:30 UT

     The Minor Planet Electronic Circulars contain information on unusual
         minor planets and routine data on comets.  They are published
   on behalf of Commission 20 of the International Astronomical Union by the
          Minor Planet Center, Smithsonian Astrophysical Observatory,
                          Cambridge, MA 02138, U.S.A.

         Supported in part by the Steven and Michele Kirsch Foundation
             Prepared using the Tamkin Foundation Computer Network

                              MPC@CFA.HARVARD.EDU
          URL http://cfa-www.harvard.edu/iau/mpc.html  ISSN 1523-6714

                                   2001 PD1

                           Revision to MPEC 2001-P24

Additional Observations:
     K01P01D  C2004 06 09.26519 16 33 46.23 -26 59 52.8          21.1 R EL023926
     K01P01D  C2004 06 09.26856 16 33 45.91 -26 59 50.7          20.6 R EL023926
     K01P01D  C2004 06 09.27286 16 33 45.58 -26 59 51.7          21.2 R EL023926
     K01P01D  C2004 06 10.26689 16 32 23.14 -26 54 52.8          20.8 R EL023926
     K01P01D  C2004 06 10.27374 16 32 22.56 -26 54 50.0                 EL023926

Observer details:
926 Tenagra II Observatory.  Observers P. R. Holvorcem, M. Schwartz.  0.81-m
    f/7 Ritchey-Chretien + CCD.

First and last observations above in comparison with prediction:
Residuals in seconds of arc, reference and Delta-T
040609 926 76.5+  6.3-    040610 926 76.3+  5.3-    MPO 25905   -0.058 day

Orbital elements:
2001 PD1
Epoch 2004 July 14.0 TT = JDT 2453200.5                 MPC
M 299.80174              (2000.0)            P               Q
n   0.29525013     Peri.   94.42587     +0.95075578     -0.29292068
a   2.2336202      Node   282.63140     +0.22687242     +0.88039405
e   0.4585504      Incl.    5.95853     +0.21116902     +0.37296620
P   3.34           H   18.2           G   0.15           U   1
Residuals in seconds of arc
010804 608  0.7-  0.3+    011010 151  0.2-  0.4-    011115 557  0.1+  0.2+
010804 608  0.4-  1.1+    011010 151  0.1+  0.3-    011115 557  0.1+  0.0
010804 608  0.8-  0.8+    011010 151  0.1-  0.1-    011115 557  0.1+  0.1-
010805 859 (3.6-  5.5-)   011011 238 (3.7+  0.8+)   011116 557  0.3+  0.0
010805 859 (1.6-  2.6+)   011013 198  0.5-  0.5-    011116 557  0.2+  0.0
010805 859  0.6-  0.6+    011013 198  0.4-  0.1+    011116 670  0.6+  0.1+
010805 649 (4.7-  2.0-)   011013 157  0.4-  0.4-    011116 670  0.3+  0.0
010805 649 (0.9+  2.5+)   011013 157  0.7-  0.1-    011116 557  0.2+  0.2-
010805 649  1.1+  0.8-    011014 157  1.1+  0.3-    011116 557  0.1+  0.2-
010805 644  0.3+  0.6+    011014 157  0.3+  0.2-    011116 557  0.2+  0.2-
010805 644  0.4+  0.5+    011018 360  0.1+  0.1-    011116 557  0.1+  0.1-
010805 644  0.6+  0.6+    011018 360  0.2-  0.3-    011116 557  0.0   0.2-
010805 608  0.0   0.7-    011018 360  0.1-  0.2-    011117 118  0.3+  0.1-
010805 608  0.1-  0.1-    011019 151  0.3+  1.1+    011117 118  0.2+  0.1-
010805 608  0.0   0.1-    011019 151  0.7-  0.8-    011117 118  0.2+  0.0
010807 649  1.6+  0.1-    011019 157  0.2+  0.5-    011120 557  0.1+  0.2-
010807 649  0.2+  0.7+    011019 157  0.4+  0.5-    011120 557  0.0   0.2-
010807 649  0.2-  0.0     011019 157  0.8-  0.1+    011120 557  0.1+  0.3-
010808 413  0.2-  0.3-    011022 238  0.2+  0.1-    011121 557  0.1+  0.2-
010808 413  0.1-  0.1-    011022 238  1.4+  0.6-    011121 557  0.2+  0.3-
010808 413  0.0   0.2+    011022 238  1.0+  1.3-    011121 557  0.2-  0.3-
010809 413  0.2-  0.8-    011023 670  0.4+  0.5+    011121 557  0.1+  0.3-
010809 413  0.4+  0.1-    011023 670  0.2+  0.5-    011121 557  0.0   0.2-
010809 413  0.0   0.4-    011025 704  0.1+  0.5+    011121 185  0.2+  0.4-
010815 046  0.7-  0.1-    011025 704  0.0   0.5+    011121 185  0.1+  0.5-
010815 046  0.0   0.4+    011025 704 (4.3+  1.9+)   011121 185  0.1+  0.2-
010815 046  0.8-  0.6+    011025 704  0.3+  0.5+    011121 185  0.1+  0.3-
010815 046  0.8-  0.5+    011025 704  0.0   0.2+    011121 185  0.3+  0.3-
010819 642  0.1-  0.1+    011026 151  0.1-  0.3-    011202 118  0.3-  0.3+
010819 642  0.7+  0.6+    011026 151  0.1-  0.2-    011202 118  0.0   0.2+
010819 642  1.4+  1.8+    011026 151  0.2+  0.3+    011202 118  0.5-  0.2+
010821 608  0.3+  0.0     011026 151  0.1-  0.6-    011203 113  0.1-  0.2-
010821 608  0.3+  0.1-    011026 151  0.4-  0.1-    011203 113  0.4+  0.4+
010821 608  0.4+  0.0     011026 151  0.0   0.9-    011203 113  0.7+  0.3+
010822 071  0.8-  0.6-    011030 151  1.0-  1.0+    011208 198  0.2-  0.7-
010822 071  0.9-  0.3+    011030 151  0.4+  0.1-    011208 198  0.1-  0.3-
010822 704  0.2-  0.0     011030 151  0.1+  0.5-    011208 198  0.0   0.3-
010822 704  0.1-  0.0     011030 151  0.5+  0.5+    011208 198  0.1+  0.1-
010822 704  0.3+  0.1-    011104 151  0.1-  0.8-    011209 704  0.8-  0.1-
010822 704  0.5+  0.5+    011104 151  0.3-  0.6-    011209 704  0.6-  0.8+
010822 704  0.1+  0.0     011104 151  0.2-  0.5-    011209 704  1.1-  0.3-
010824 670  0.3-  1.0-    011104 151  0.3-  0.4-    011209 704  0.3+  0.2-
010831 360  0.1+  0.2+    011109 151  0.3+  0.2-    011217 704  0.1+  0.7+
010831 360  0.0   0.4-    011109 151  0.1-  0.4-    011217 704  0.4+  0.1+
010831 360  0.1-  0.1-    011109 151  0.1+  0.2-    011217 704  0.4+  0.1-
010831 402  0.3+  0.2-    011109 151  0.2-  0.4-    011217 704  0.2+  0.6+
010831 402  0.3+  0.1+    011110 198  0.1+  0.0     011217 704  0.3+  0.4+
010831 402  0.4+  0.1+    011110 198  0.0   0.1+    011218 704  0.8-  1.1+
010903 918  0.0   0.3+    011110 198  0.0   0.0     011218 704  0.3-  1.8+
010903 918  0.5-  0.2+    011110 557  0.1-  0.0     011218 704  0.7-  1.7+
010903 918  0.1+  0.5+    011110 557  0.2-  0.0     011218 704  0.3+  0.1+
010903 918  0.3-  0.3+    011111 557  0.3-  0.1-    011219 704  0.4-  0.2+
010904 918  0.5+  0.7+    011111 557  0.1+  0.0     011219 704  0.3-  0.4+
010904 918  1.5-  0.4+    011111 557  0.1-  0.1+    011219 704  0.3-  0.4+
010904 918  0.6+  0.4+    011111 557  0.0   0.1-    011219 704  0.4-  0.4+
010904 918  1.8-  0.3+    011111 557  0.0   0.2+    011219 704  0.1+  0.6+
010908 704  0.1+  0.4+    011111 704  0.3+  0.5-    011219 704  0.6-  0.6+
010908 704  0.5-  1.2+    011111 704  0.0   0.2-    011219 704  0.0   1.1+
010908 704  0.4-  0.8+    011111 704 (2.8+  1.4+)   011219 704  0.7-  0.4+
010908 704  0.1+  1.0+    011111 704  0.1+  0.4-    011219 704  0.7+  0.4+
010923 642  0.9-  0.8-    011111 704  0.1+  0.1-    011219 704  0.7-  1.2+
010923 642  0.0   0.2-    011113 557  0.1+  0.3-    011220 704  0.5+  0.6+
010923 642  0.3+  0.6-    011114 557  0.0   0.0     011220 704  0.1-  1.2+
010923 642  0.1-  0.4-    011114 557  0.2+  0.3-    011220 704  0.1-  0.9+
010925 071  0.2-  0.1-    011114 557  0.1+  0.1-    011220 704  0.3-  0.4+
010925 071  0.6-  0.4-    011114 557  0.1-  0.2-    011220 704  0.6-  0.8+
010925 071  0.9-  0.2-    011114 557  0.1+  0.2-    011220 704  0.7+  0.0
010926 704  1.7-  0.1-    011114 557  0.3+  0.1-    011220 704  0.7-  1.0+
010926 704  1.4-  0.0     011114 557  0.2+  0.3+    011220 704  0.1+  1.9+
010926 704  1.3-  0.4+    011114 557  0.0   0.3-    011220 704  0.5+  0.7-
010926 704  0.7-  0.4+    011114 670  0.2+  0.4+    020108 704  0.2+  0.6+
011001 649  0.3-  0.2-    011114 670  0.4+  0.0     020108 704  0.3+  0.1-
011001 649  0.2-  0.2-    011114 557  0.2-  0.5-    020108 704  0.1+  0.1+
011003 118  0.8-  0.3-    011114 557  0.2-  0.1-    020108 704  0.4+  0.3-
011003 118  0.0   0.3-    011114 557  0.2+  0.2-    020108 704  0.0   0.6+
011003 118  0.4+  0.4-    011114 557  0.1+  0.1-    020114 704  0.6+  0.1+
011004 198  0.2+  0.5-    011114 557  0.0   0.2-    020114 704  0.4+  0.1-
011004 198  0.1-  0.0     011114 557  0.0   0.2-    020114 704  0.3-  0.5+
011004 198  0.4-  0.6+    011114 557  0.0   0.0     020114 704  0.0   0.1+
011004 238  1.3+  0.2-    011115 557  0.0   0.1-    020114 704  0.3+  0.4+
011004 238  1.6+  1.1+    011115 118  0.1+  0.2+    040609 926  0.1+  0.5-
011005 238  1.0+  0.6+    011115 118  0.1+  0.1-    040609 926  0.3-  0.6+
011010 151  0.1+  0.1+    011115 118  0.4+  0.1-    040609 926  0.2+  1.6-
011010 151  0.1+  0.2-    011115 557  0.0   0.2-    040610 926  0.0   0.0
011010 151  0.0   0.2-    011115 557  0.0   0.2-    040610 926  0.1+  0.7+

Ephemeris:
2001 PD1                 a,e,i = 2.23, 0.46, 6                   q = 1.2094
Date    TT    R. A. (2000) Decl.     Delta      r     Elong.  Phase     V
2004 06 04    16 41.05   -27 23.9    1.365    2.377   174.7     2.3    21.0
2004 06 14    16 27.28   -26 35.2    1.330    2.327   165.3     6.4    21.1
2004 06 24    16 14.53   -25 37.3    1.322    2.276   153.2    11.6    21.3
2004 07 04    16 04.28   -24 37.1    1.336    2.223   141.4    16.6    21.5
2004 07 14    15 57.46   -23 41.6    1.370    2.170   130.2    21.0    21.6
2004 07 24    15 54.50   -22 56.2    1.416    2.115   119.9    24.6    21.7
2004 08 03    15 55.44   -22 23.1    1.472    2.059   110.5    27.5    21.8
2004 08 13    16 00.03   -22 02.5    1.531    2.002   101.9    29.7    21.9
2004 08 23    16 08.00   -21 52.8    1.591    1.944    94.0    31.3    22.0
2004 09 02    16 19.04   -21 51.3    1.649    1.886    86.9    32.3    22.0
2004 09 12    16 32.85   -21 54.9    1.703    1.827    80.3    32.9    22.0
2004 09 22    16 49.23   -22 00.1    1.750    1.767    74.4    33.2    22.0
2004 10 02    17 07.99   -22 03.5    1.791    1.708    68.9    33.1    22.0
2004 10 12    17 28.95   -22 01.3    1.824    1.649    63.9    32.9    22.0

Kyle E. Smalley              (C) Copyright 2004 MPC           M.P.E.C. 2004-L23

Read MPEC 2004-L22 Read MPEC 2004-L24


Our Web policy. Index to the CBAT/MPC/ICQ pages.


Valid HTML 4.01!